DELTA 1 DEB, 12263

Orbit data source: Space-Track

DELTA 1 DEB, 12263 is space debris in SSO originally from a launch on Sun, 05 Mar 1978 UTC launched from the Air Force Western Test Range (AFWTR). Debris objects in space refer to the collection of defunct objects orbiting the Earth. Examples of debris include non-operational satellites, rocket bodies, and fragments generated from explosions, collisions, or faulty payload assembly.

Loading next visibility...
Identifier
12263, 1978-026DG
Orbit
SSO
Country
Flag of USUS
Related business
Manufacturer
Unknown
Mission
Spacecraft
Bus & Motor
Unknown
Mass
Unknown
Launch date (UTC)
1978-03-05 (48 years ago)
Launch vehicle
Unknown
Launch site
Air Force Western Test Range (AFWTR)
Object type
Payload
Rocket body
Debris
Shape & HBR
Unknown shape, 0.1 m
Radar Cross Section
Medium (>0.1 m² and <1 m²)

Expand to show TLE details & history
Last TLE update: 2 days ago

TLE from 2 days ago
0 DELTA 1 DEB
1 12263U 78026DG  26171.29135800 -.00001651  00000-0 -19957-2 0  9990
2 12263  98.9403 284.9669 0411726 353.5771   6.0174 13.34518102170199
Epoch: 2026-06-20T06:59Z
TLE epoch observation values (Epoch: 2026-06-20T06:59:33.331Z)
Latitude
-0.00007°
Longitude
-88.43006°
Altitude
825.241 km
Speed
7.591 km/s
True Right ascension
18h 59m 52s
True Declination
0° 00' 00"
Sunlit
Object was in full shadow at epoch
Visualization orbit readout
Latitude
Unknown
Longitude
Unknown
Altitude
Unknown
Speed
Unknown
Apparent Right ascension
Unknown
Apparent Declination
Unknown
Sunlit
N/A
Visualization observer readout
Local Sidereal Time
03:40:34
Azimuth
Unknown
Elevation
Unknown
Doppler factor
Unknown
Orbital elements
Apogee altitude
1,436.055 km
Perigee altitude
818.04 km
Semi-major axis
7,505.185 km
Eccentricity
0.04117
Inclination
98.9403°
RAAN
284.9669°
Arg. of periapsis
353.5771°
True anomaly
6.5386°
Mean anomaly
6.0174°
Eccentric anomaly
6.27525°
Mean motion
3.33811 °/min
Orbital period
107.85 mins
BSTAR
-0.0019957
Loading maneuver chart data...
Computing Atmospheric mass density...

Documentation

Showing up to 5 results
|